Station Historical Data
Daily Summary for January 28, 2017 Units:  Metric    English   Both
Next Day »
Daily Weekly Monthly Yearly Custom
  High: Low: Average:
Temperature: 12.4 °C 1.1 °C 6 °C
Dew Point: 5.4 °C -1.1 °C 1.8 °C
Humidity: 92% 48% 76%
Wind Speed: 19.3km/h 0km/h 1km/h
Wind Gust: 32.2km/h - -
Wind- - SE
Pressure: 1038.8 hPa 1035.4 hPa -
Precipitation: 0 mm    
Historical Graphs
 
 
Tabular Data for January 28, 2017
Time Temperature Dew Point Pressure Wind Wind Speed Wind Gust Humidity Rainfall Rate (Hourly) solar Conditions
00:04 1.6 °C 0.4 °C 1038.5 hPa Calm     92% 0 mm 0.00 W/m2
00:09 1.7 °C 0.5 °C 1038.5 hPa Calm     92% 0 mm 0.00 W/m2
00:14 1.7 °C 0.3 °C 1038.1 hPa Calm     91% 0 mm 0.00 W/m2
00:19 1.7 °C 0.3 °C 1038.1 hPa Calm     91% 0 mm 0.00 W/m2
00:24 1.7 °C 0.3 °C 1038.5 hPa Calm     91% 0 mm 0.00 W/m2
00:29 1.6 °C 0.3 °C 1038.5 hPa Calm     91% 0 mm 0.00 W/m2
00:34 1.6 °C 0.3 °C 1038.5 hPa Calm     91% 0 mm 0.00 W/m2
00:39 1.6 °C 0.3 °C 1038.5 hPa Calm     91% 0 mm 0.00 W/m2
00:44 1.7 °C 0.3 °C 1038.5 hPa Calm     91% 0 mm 0.00 W/m2
00:49 1.7 °C 0.2 °C 1038.5 hPa Calm     90% 0 mm 0.00 W/m2
00:54 1.7 °C 0.3 °C 1038.5 hPa Calm     90% 0 mm 0.00 W/m2
00:59 1.8 °C 0.3 °C 1038.5 hPa Calm     90% 0 mm 0.00 W/m2
01:04 1.8 °C 0.4 °C 1038.5 hPa Calm     90% 0 mm 0.00 W/m2
01:09 1.8 °C 0.4 °C 1038.5 hPa Calm     90% 0 mm 0.00 W/m2
01:14 1.8 °C 0.2 °C 1038.5 hPa North 1.6 km/h 1.6 km/h 89% 0 mm 0.00 W/m2
01:19 1.8 °C 0.2 °C 1038.5 hPa North 1.6 km/h 4.8 km/h 89% 0 mm 0.00 W/m2
01:24 1.8 °C 0.2 °C 1038.5 hPa North 1.6 km/h 3.2 km/h 89% 0 mm 0.00 W/m2
01:29 1.8 °C 0.2 °C 1038.5 hPa North 1.6 km/h 3.2 km/h 89% 0 mm 0.00 W/m2
01:35 1.8 °C 0.2 °C 1038.5 hPa Calm   4.8 km/h 89% 0 mm 0.00 W/m2
01:40 1.8 °C 0.2 °C 1038.1 hPa Calm     89% 0 mm 0.00 W/m2
01:45 1.8 °C 0.1 °C 1038.1 hPa Calm     88% 0 mm 0.00 W/m2
01:50 1.9 °C 0.1 °C 1038.1 hPa Calm     88% 0 mm 0.00 W/m2
01:55 1.8 °C 0 °C 1038.1 hPa Calm     88% 0 mm 0.00 W/m2
02:00 1.7 °C 0.1 °C 1038.1 hPa Calm     89% 0 mm 0.00 W/m2
02:05 1.7 °C 0.1 °C 1038.1 hPa Calm     89% 0 mm 0.00 W/m2
02:10 1.7 °C 0.1 °C 1038.1 hPa Calm     89% 0 mm 0.00 W/m2
02:15 1.7 °C 0.1 °C 1038.1 hPa Calm     89% 0 mm 0.00 W/m2
02:20 1.7 °C 0.1 °C 1038.1 hPa Calm     89% 0 mm 0.00 W/m2
02:25 1.6 °C 0 °C 1038.1 hPa Calm     89% 0 mm 0.00 W/m2
02:30 1.6 °C -0.1 °C 1038.1 hPa Calm     89% 0 mm 0.00 W/m2
02:35 1.6 °C -0.1 °C 1037.8 hPa Calm     89% 0 mm 0.00 W/m2
02:40 1.5 °C -0.1 °C 1037.8 hPa Calm     89% 0 mm 0.00 W/m2
02:45 1.5 °C -0.1 °C 1037.8 hPa Calm     89% 0 mm 0.00 W/m2
02:50 1.5 °C -0.1 °C 1037.8 hPa Calm     89% 0 mm 0.00 W/m2
02:55 1.4 °C -0.2 °C 1037.5 hPa Calm     89% 0 mm 0.00 W/m2
03:00 1.4 °C -0.2 °C 1037.5 hPa Calm     89% 0 mm 0.00 W/m2
03:05 1.4 °C -0.2 °C 1037.5 hPa Calm     89% 0 mm 0.00 W/m2
03:10 1.3 °C -0.3 °C 1037.5 hPa Calm     89% 0 mm 0.00 W/m2
03:15 1.3 °C -0.5 °C 1037.1 hPa Calm     88% 0 mm 0.00 W/m2
03:20 1.2 °C -0.6 °C 1037.5 hPa Calm     88% 0 mm 0.00 W/m2
03:25 1.2 °C -0.8 °C 1037.1 hPa Calm     87% 0 mm 0.00 W/m2
03:30 1.2 °C -0.7 °C 1037.1 hPa Calm     87% 0 mm 0.00 W/m2
03:35 1.2 °C -0.7 °C 1037.1 hPa Calm     87% 0 mm 0.00 W/m2
03:40 1.3 °C -0.7 °C 1037.1 hPa Calm     87% 0 mm 0.00 W/m2
03:45 1.3 °C -0.4 °C 1037.5 hPa Calm     88% 0 mm 0.00 W/m2
03:50 1.4 °C -0.2 °C 1037.5 hPa Calm     89% 0 mm 0.00 W/m2
03:55 1.6 °C -0.1 °C 1037.5 hPa Calm     89% 0 mm 0.00 W/m2
04:00 1.7 °C 0.1 °C 1037.5 hPa Calm     89% 0 mm 0.00 W/m2
04:05 1.7 °C 0.1 °C 1037.5 hPa Calm     89% 0 mm 0.00 W/m2
04:10 1.7 °C 0.1 °C 1037.5 hPa Calm     89% 0 mm 0.00 W/m2
04:15 1.7 °C 0.1 °C 1037.8 hPa Calm     89% 0 mm 0.00 W/m2
04:20 1.7 °C 0.3 °C 1037.8 hPa Calm     90% 0 mm 0.00 W/m2
04:25 1.7 °C 0.3 °C 1037.8 hPa Calm     90% 0 mm 0.00 W/m2
04:30 1.7 °C 0.3 °C 1037.8 hPa Calm     90% 0 mm 0.00 W/m2
04:35 1.7 °C 0.3 °C 1038.1 hPa Calm     90% 0 mm 0.00 W/m2
04:40 1.7 °C 0.3 °C 1038.1 hPa Calm   1.6 km/h 90% 0 mm 0.00 W/m2
04:45 1.7 °C 0.3 °C 1038.1 hPa Calm     90% 0 mm 0.00 W/m2
04:50 1.7 °C 0.3 °C 1038.1 hPa Calm     90% 0 mm 0.00 W/m2
04:56 1.7 °C 0.2 °C 1038.1 hPa Calm     90% 0 mm 0.00 W/m2
05:01 1.6 °C 0.2 °C 1038.5 hPa Calm     90% 0 mm 0.00 W/m2
05:06 1.6 °C 0.2 °C 1038.5 hPa Calm     90% 0 mm 0.00 W/m2
05:11 1.6 °C 0.2 °C 1038.5 hPa Calm     90% 0 mm 0.00 W/m2
05:16 1.6 °C 0.2 °C 1038.5 hPa North 1.6 km/h 8 km/h 90% 0 mm 0.00 W/m2
05:21 1.7 °C 0.2 °C 1038.5 hPa North 1.6 km/h 6.4 km/h 90% 0 mm 0.00 W/m2
05:26 1.7 °C 0.2 °C 1038.5 hPa North 3.2 km/h 8 km/h 90% 0 mm 0.00 W/m2
05:31 1.7 °C 0.2 °C 1038.1 hPa Calm   6.4 km/h 90% 0 mm 0.00 W/m2
05:36 1.6 °C 0 °C 1038.1 hPa Calm     89% 0 mm 0.00 W/m2
05:41 1.5 °C -0.1 °C 1038.1 hPa Calm     89% 0 mm 0.00 W/m2
05:46 1.5 °C -0.1 °C 1038.5 hPa Calm     89% 0 mm 0.00 W/m2
05:51 1.4 °C -0.2 °C 1038.5 hPa Calm     89% 0 mm 0.00 W/m2
05:56 1.4 °C -0.2 °C 1038.5 hPa Calm     89% 0 mm 0.00 W/m2
06:01 1.4 °C -0.2 °C 1038.5 hPa Calm     89% 0 mm 0.00 W/m2
06:06 1.4 °C -0.2 °C 1038.5 hPa Calm     89% 0 mm 0.00 W/m2
06:11 1.3 °C -0.3 °C 1038.5 hPa Calm     89% 0 mm 0.00 W/m2
06:16 1.3 °C -0.3 °C 1038.5 hPa Calm     89% 0 mm 0.00 W/m2
06:21 1.3 °C -0.3 °C 1038.5 hPa Calm   3.2 km/h 89% 0 mm 0.00 W/m2
06:26 1.2 °C -0.6 °C 1038.5 hPa Calm     88% 0 mm 0.00 W/m2
06:31 1.2 °C -0.6 °C 1038.5 hPa Calm   6.4 km/h 88% 0 mm 0.00 W/m2
06:36 1.2 °C -0.6 °C 1038.5 hPa Calm   12.9 km/h 88% 0 mm 0.00 W/m2
06:41 1.2 °C -0.6 °C 1038.1 hPa East 1.6 km/h 12.9 km/h 88% 0 mm 0.00 W/m2
06:46 1.1 °C -0.7 °C 1038.1 hPa ESE 3.2 km/h 14.5 km/h 88% 0 mm 0.00 W/m2
06:51 1.1 °C -0.7 °C 1038.1 hPa ESE 8 km/h 9.7 km/h 88% 0 mm 0.00 W/m2
06:56 1.1 °C -0.8 °C 1038.1 hPa ESE 6.4 km/h 22.5 km/h 87% 0 mm 0.00 W/m2
07:01 1.1 °C -0.8 °C 1038.1 hPa Calm   27.4 km/h 87% 0 mm 0.00 W/m2
07:06 1.2 °C -0.8 °C 1038.1 hPa East 8 km/h 22.5 km/h 87% 0 mm 5.00 W/m2
07:11 1.2 °C -0.7 °C 1038.1 hPa Calm   24.1 km/h 87% 0 mm 5.00 W/m2
07:16 1.3 °C -0.8 °C 1038.1 hPa Calm   24.1 km/h 86% 0 mm 7.00 W/m2
07:21 1.4 °C -0.8 °C 1038.1 hPa Calm   25.7 km/h 85% 0 mm 9.00 W/m2
07:26 1.5 °C -0.7 °C 1038.1 hPa Calm   17.7 km/h 85% 0 mm 12.00 W/m2
07:31 1.6 °C -0.8 °C 1038.1 hPa Calm   19.3 km/h 84% 0 mm 16.00 W/m2
07:36 1.7 °C -0.8 °C 1038.1 hPa East 6.4 km/h 20.9 km/h 83% 0 mm 19.00 W/m2
07:41 1.8 °C -0.8 °C 1038.1 hPa ESE 14.5 km/h 25.7 km/h 83% 0 mm 26.00 W/m2
07:46 1.8 °C -0.9 °C 1038.1 hPa ESE 19.3 km/h 25.7 km/h 82% 0 mm 21.00 W/m2
07:51 1.9 °C -0.8 °C 1038.1 hPa Calm   29 km/h 82% 0 mm 35.00 W/m2
07:56 2 °C -0.9 °C 1038.1 hPa ESE 8 km/h 32.2 km/h 81% 0 mm 53.00 W/m2
08:01 2.1 °C -1 °C 1038.1 hPa Calm   25.7 km/h 80% 0 mm 58.00 W/m2
08:06 2.2 °C -0.9 °C 1038.1 hPa ESE 11.3 km/h 25.7 km/h 80% 0 mm 53.00 W/m2
08:11 2.3 °C -1.1 °C 1038.1 hPa ESE 3.2 km/h 24.1 km/h 78% 0 mm 114.00 W/m2
08:16 2.5 °C -0.8 °C 1038.1 hPa Calm   20.9 km/h 79% 0 mm 77.00 W/m2
08:21 2.7 °C -0.8 °C 1038.1 hPa ESE 11.3 km/h 32.2 km/h 78% 0 mm 134.00 W/m2
08:26 2.8 °C -0.6 °C 1038.5 hPa ESE 12.9 km/h 25.7 km/h 78% 0 mm 183.00 W/m2
08:31 3 °C -0.4 °C 1038.5 hPa Calm   24.1 km/h 78% 0 mm 190.00 W/m2
08:36 3.2 °C -0.5 °C 1038.5 hPa ESE 3.2 km/h 25.7 km/h 77% 0 mm 169.00 W/m2
08:41 3.3 °C -0.6 °C 1038.5 hPa ESE 17.7 km/h 22.5 km/h 76% 0 mm 246.00 W/m2
08:46 3.5 °C -0.2 °C 1038.5 hPa ESE 6.4 km/h 22.5 km/h 77% 0 mm 257.00 W/m2
08:51 3.7 °C -0.2 °C 1038.5 hPa ENE 3.2 km/h 24.1 km/h 76% 0 mm 283.00 W/m2
08:56 3.8 °C 0 °C 1038.5 hPa ESE 1.6 km/h 1.6 km/h 76% 0 mm 304.00 W/m2
09:01 4 °C 0 °C 1038.5 hPa East 6.4 km/h 6.4 km/h 75% 0 mm 323.00 W/m2
09:06 4.2 °C 0.1 °C 1038.5 hPa East 6.4 km/h 14.5 km/h 75% 0 mm 339.00 W/m2
09:11 4.3 °C 0.3 °C 1038.5 hPa ESE 1.6 km/h 14.5 km/h 75% 0 mm 353.00 W/m2
09:16 4.5 °C 0.3 °C 1038.8 hPa Calm   11.3 km/h 74% 0 mm 360.00 W/m2
09:21 4.7 °C 0.4 °C 1038.8 hPa Calm   9.7 km/h 74% 0 mm 378.00 W/m2
09:23 4.8 °C 0.6 °C 1038.8 hPa Calm   6.4 km/h 74% 0 mm 380.00 W/m2
09:28 5 °C 0.9 °C 1038.8 hPa Calm   3.2 km/h 75% 0 mm 378.00 W/m2
09:33 5.2 °C 1.2 °C 1038.8 hPa ESE 3.2 km/h 8 km/h 75% 0 mm 383.00 W/m2
09:38 5.4 °C 1.3 °C 1038.8 hPa Calm   8 km/h 75% 0 mm 410.00 W/m2
09:43 5.6 °C 1.3 °C 1038.8 hPa Calm   9.7 km/h 74% 0 mm 422.00 W/m2
09:48 5.8 °C 1.6 °C 1038.8 hPa Calm   8 km/h 74% 0 mm 436.00 W/m2
09:53 6.1 °C 1.8 °C 1038.8 hPa ESE 1.6 km/h 6.4 km/h 74% 0 mm 448.00 W/m2
09:58 6.3 °C 1.8 °C 1038.8 hPa ESE 3.2 km/h 8 km/h 73% 0 mm 461.00 W/m2
10:03 6.6 °C 2.3 °C 1038.5 hPa East 9.7 km/h 11.3 km/h 74% 0 mm 471.00 W/m2
10:08 6.8 °C 2.1 °C 1038.5 hPa East 1.6 km/h 6.4 km/h 72% 0 mm 480.00 W/m2
10:13 7 °C 2.5 °C 1038.5 hPa ESE 1.6 km/h 8 km/h 73% 0 mm 492.00 W/m2
10:18 7.2 °C 1.7 °C 1038.5 hPa SE 8 km/h 11.3 km/h 68% 0 mm 501.00 W/m2
10:23 7.4 °C 1.7 °C 1038.5 hPa ESE 6.4 km/h 9.7 km/h 67% 0 mm 510.00 W/m2
10:28 7.8 °C 1.8 °C 1038.1 hPa ESE 6.4 km/h 9.7 km/h 66% 0 mm 519.00 W/m2
10:33 8.1 °C 1.5 °C 1038.1 hPa Calm   6.4 km/h 63% 0 mm 527.00 W/m2
10:38 8.4 °C 1.4 °C 1038.1 hPa ESE 1.6 km/h 8 km/h 61% 0 mm 538.00 W/m2
10:43 8.7 °C 1.2 °C 1038.1 hPa ESE 1.6 km/h 6.4 km/h 59% 0 mm 545.00 W/m2
10:48 9.1 °C 1.7 °C 1038.1 hPa Calm   8 km/h 60% 0 mm 552.00 W/m2
10:53 9.3 °C 1.2 °C 1038.1 hPa ESE 1.6 km/h 1.6 km/h 57% 0 mm 548.00 W/m2
10:58 9.5 °C -0.9 °C 1038.1 hPa ESE 3.2 km/h 6.4 km/h 48% 0 mm 561.00 W/m2
11:03 9.7 °C -0.8 °C 1038.1 hPa Calm   1.6 km/h 48% 0 mm 570.00 W/m2
11:08 10 °C 0.6 °C 1038.1 hPa ESE 1.6 km/h 3.2 km/h 52% 0 mm 577.00 W/m2
11:13 10.2 °C 0.2 °C 1037.8 hPa Calm   1.6 km/h 50% 0 mm 585.00 W/m2
11:18 10.3 °C 1.2 °C 1037.8 hPa Calm   1.6 km/h 53% 0 mm 582.00 W/m2
11:23 10.5 °C 1.1 °C 1037.8 hPa ESE 1.6 km/h 3.2 km/h 52% 0 mm 587.00 W/m2
11:28 10.7 °C 1.7 °C 1037.8 hPa Calm   1.6 km/h 54% 0 mm 584.00 W/m2
11:33 10.8 °C 1.7 °C 1037.8 hPa Calm   1.6 km/h 53% 0 mm 603.00 W/m2
11:38 10.9 °C 0.4 °C 1037.5 hPa Calm     48% 0 mm 613.00 W/m2
11:43 11.2 °C 1.7 °C 1037.5 hPa Calm     52% 0 mm 606.00 W/m2
11:48 11.3 °C 4.1 °C 1037.5 hPa East 1.6 km/h 3.2 km/h 61% 0 mm 605.00 W/m2
11:53 11.2 °C 3.5 °C 1037.5 hPa North 1.6 km/h 3.2 km/h 59% 0 mm 608.00 W/m2
11:58 11.1 °C 4.1 °C 1037.1 hPa Calm   1.6 km/h 62% 0 mm 613.00 W/m2
12:03 11 °C 3.8 °C 1037.1 hPa Calm     61% 0 mm 619.00 W/m2
12:08 11 °C 4.2 °C 1037.1 hPa Calm     63% 0 mm 624.00 W/m2
12:13 10.9 °C 4.4 °C 1036.8 hPa East 3.2 km/h 3.2 km/h 64% 0 mm 621.00 W/m2
12:18 10.9 °C 3.9 °C 1036.8 hPa Calm     62% 0 mm 628.00 W/m2
12:23 11 °C 3.3 °C 1036.8 hPa Calm     59% 0 mm 624.00 W/m2
12:24 11 °C 3.3 °C 1036.8 hPa Calm     59% 0 mm 624.00 W/m2
12:29 11.2 °C 3.8 °C 1036.8 hPa Calm     60% 0 mm 594.00 W/m2
12:34 11.4 °C 3.5 °C 1036.5 hPa Calm   1.6 km/h 58% 0 mm 626.00 W/m2
12:39 11.6 °C 3.8 °C 1036.5 hPa East 3.2 km/h 3.2 km/h 59% 0 mm 626.00 W/m2
12:44 11.7 °C 3.7 °C 1036.5 hPa Calm   1.6 km/h 58% 0 mm 615.00 W/m2
12:49 11.7 °C 4.2 °C 1036.5 hPa Calm   1.6 km/h 60% 0 mm 621.00 W/m2
12:54 11.9 °C 3.9 °C 1036.5 hPa NNE 1.6 km/h 1.6 km/h 58% 0 mm 608.00 W/m2
12:59 12.1 °C 3.6 °C 1036.1 hPa Calm   1.6 km/h 56% 0 mm 584.00 W/m2
13:04 12.3 °C 4.5 °C 1036.1 hPa Calm   1.6 km/h 59% 0 mm 612.00 W/m2
13:09 12.3 °C 3.8 °C 1035.8 hPa Calm   1.6 km/h 56% 0 mm 592.00 W/m2
13:14 12.3 °C 3.2 °C 1035.8 hPa NW 3.2 km/h 3.2 km/h 54% 0 mm 585.00 W/m2
13:19 12.4 °C 3.1 °C 1035.8 hPa NW 1.6 km/h 1.6 km/h 53% 0 mm 561.00 W/m2
13:24 12.4 °C 3.6 °C 1035.8 hPa NW 1.6 km/h 3.2 km/h 55% 0 mm 548.00 W/m2
13:29 12.3 °C 2.5 °C 1035.8 hPa Calm   1.6 km/h 51% 0 mm 577.00 W/m2
13:34 12.2 °C 2.9 °C 1035.8 hPa Calm   1.6 km/h 53% 0 mm 555.00 W/m2
13:39 12.1 °C 2.8 °C 1035.8 hPa Calm   3.2 km/h 53% 0 mm 541.00 W/m2
13:44 12.1 °C 3.1 °C 1035.8 hPa Calm   1.6 km/h 54% 0 mm 536.00 W/m2
13:49 12 °C 3 °C 1035.8 hPa WNW 1.6 km/h 3.2 km/h 54% 0 mm 527.00 W/m2
13:54 12 °C 4 °C 1035.8 hPa Calm   1.6 km/h 58% 0 mm 515.00 W/m2
13:59 11.9 °C 3.2 °C 1035.8 hPa Calm   1.6 km/h 55% 0 mm 524.00 W/m2
14:04 11.9 °C 2.9 °C 1035.8 hPa Calm   1.6 km/h 54% 0 mm 499.00 W/m2
14:09 11.9 °C 3.7 °C 1035.8 hPa NW 1.6 km/h 1.6 km/h 57% 0 mm 482.00 W/m2
14:14 11.9 °C 3.4 °C 1035.8 hPa Calm   3.2 km/h 56% 0 mm 492.00 W/m2
14:19 12 °C 3.2 °C 1035.4 hPa Calm   1.6 km/h 55% 0 mm 487.00 W/m2
14:24 12.1 °C 3.1 °C 1035.8 hPa Calm   3.2 km/h 54% 0 mm 485.00 W/m2
14:29 12.1 °C 2.5 °C 1035.8 hPa NW 1.6 km/h 3.2 km/h 52% 0 mm 468.00 W/m2
14:34 12.1 °C 2.8 °C 1035.4 hPa NW 1.6 km/h 1.6 km/h 53% 0 mm 466.00 W/m2
14:39 12.1 °C 2.8 °C 1035.4 hPa Calm   1.6 km/h 53% 0 mm 443.00 W/m2
14:44 12.1 °C 2.8 °C 1035.4 hPa Calm   1.6 km/h 53% 0 mm 432.00 W/m2
14:49 12.1 °C 2.8 °C 1035.4 hPa Calm   1.6 km/h 53% 0 mm 418.00 W/m2
14:54 12 °C 2.7 °C 1035.4 hPa Calm     53% 0 mm 410.00 W/m2
14:59 11.9 °C 2.7 °C 1035.4 hPa Calm     53% 0 mm 396.00 W/m2
15:04 11.9 °C 3.7 °C 1035.4 hPa Calm   1.6 km/h 57% 0 mm 381.00 W/m2
15:09 11.8 °C 3.6 °C 1035.4 hPa Calm   1.6 km/h 57% 0 mm 366.00 W/m2
15:14 11.8 °C 2.5 °C 1035.4 hPa Calm   1.6 km/h 53% 0 mm 350.00 W/m2
15:19 11.8 °C 2.5 °C 1035.4 hPa Calm     53% 0 mm 336.00 W/m2
15:24 11.8 °C 2.3 °C 1035.4 hPa Calm     52% 0 mm 320.00 W/m2
15:29 11.9 °C 2.9 °C 1035.4 hPa Calm     54% 0 mm 308.00 W/m2
15:34 11.9 °C 2.9 °C 1035.4 hPa Calm     54% 0 mm 294.00 W/m2
15:39 11.8 °C 3.3 °C 1035.4 hPa Calm   1.6 km/h 56% 0 mm 278.00 W/m2
15:44 11.8 °C 3.6 °C 1035.4 hPa Calm     57% 0 mm 260.00 W/m2
15:49 11.9 °C 4.2 °C 1035.4 hPa Calm   1.6 km/h 59% 0 mm 239.00 W/m2
15:54 11.9 °C 4.4 °C 1035.4 hPa Calm     60% 0 mm 206.00 W/m2
15:59 11.8 °C 4.6 °C 1035.4 hPa Calm   1.6 km/h 61% 0 mm 204.00 W/m2
16:04 11.7 °C 4.4 °C 1035.4 hPa Calm     61% 0 mm 186.00 W/m2
16:09 11.6 °C 5.1 °C 1035.4 hPa Calm     64% 0 mm 172.00 W/m2
16:15 11.4 °C 4.9 °C 1035.4 hPa Calm     64% 0 mm 156.00 W/m2
16:20 11.3 °C 4.9 °C 1035.4 hPa Calm     65% 0 mm 135.00 W/m2
16:25 11.2 °C 5.1 °C 1035.8 hPa Calm     66% 0 mm 116.00 W/m2
16:30 11.1 °C 5.2 °C 1035.8 hPa Calm     67% 0 mm 98.00 W/m2
16:35 10.8 °C 5.2 °C 1035.8 hPa Calm     68% 0 mm 79.00 W/m2
16:40 10.7 °C 5.1 °C 1035.8 hPa Calm     68% 0 mm 60.00 W/m2
16:45 10.6 °C 5.1 °C 1035.8 hPa Calm     69% 0 mm 49.00 W/m2
16:50 10.4 °C 5.4 °C 1035.8 hPa Calm     71% 0 mm 35.00 W/m2
16:55 10.2 °C 5.3 °C 1035.8 hPa Calm     72% 0 mm 30.00 W/m2
17:00 9.9 °C 5.1 °C 1035.8 hPa Calm     72% 0 mm 23.00 W/m2
17:05 9.7 °C 5.3 °C 1035.8 hPa Calm     74% 0 mm 19.00 W/m2
17:10 9.5 °C 5.1 °C 1035.8 hPa Calm     74% 0 mm 16.00 W/m2
17:15 9.2 °C 5 °C 1035.8 hPa Calm     75% 0 mm 12.00 W/m2
17:20 9 °C 5 °C 1035.8 hPa Calm     76% 0 mm 9.00 W/m2
17:25 8.8 °C 4.8 °C 1035.4 hPa Calm     76% 0 mm 5.00 W/m2
17:30 8.6 °C 4.9 °C 1035.4 hPa Calm     78% 0 mm 5.00 W/m2
17:35 8.3 °C 4.7 °C 1035.4 hPa Calm     78% 0 mm 0.00 W/m2
17:40 8.2 °C 4.7 °C 1035.4 hPa Calm     79% 0 mm 0.00 W/m2
17:45 7.9 °C 4.6 °C 1035.4 hPa Calm     79% 0 mm 0.00 W/m2
17:50 7.8 °C 4.4 °C 1035.4 hPa Calm     79% 0 mm 0.00 W/m2
17:55 7.7 °C 4.4 °C 1035.4 hPa Calm     80% 0 mm 0.00 W/m2
18:00 7.6 °C 4.5 °C 1035.4 hPa Calm     81% 0 mm 0.00 W/m2
18:05 7.4 °C 4.4 °C 1035.4 hPa Calm     81% 0 mm 0.00 W/m2
18:10 7.3 °C 4.3 °C 1035.4 hPa Calm     81% 0 mm 0.00 W/m2
18:15 7.3 °C 4.4 °C 1035.4 hPa Calm     82% 0 mm 0.00 W/m2
18:20 7.3 °C 4.4 °C 1035.4 hPa Calm     82% 0 mm 0.00 W/m2
18:25 7.2 °C 4.1 °C 1035.4 hPa Calm     81% 0 mm 0.00 W/m2
18:30 7.1 °C 4.1 °C 1035.4 hPa Calm     81% 0 mm 0.00 W/m2
18:35 7.1 °C 4 °C 1035.4 hPa Calm     81% 0 mm 0.00 W/m2
18:40 7.1 °C 4 °C 1035.4 hPa Calm     81% 0 mm 0.00 W/m2
18:45 7 °C 4.2 °C 1035.4 hPa Calm     82% 0 mm 0.00 W/m2
18:50 7 °C 3.9 °C 1035.4 hPa Calm     81% 0 mm 0.00 W/m2
18:55 6.9 °C 3.9 °C 1035.4 hPa Calm     81% 0 mm 0.00 W/m2
19:00 6.9 °C 3.9 °C 1035.4 hPa Calm     81% 0 mm 0.00 W/m2
19:05 6.9 °C 3.9 °C 1035.4 hPa Calm     81% 0 mm 0.00 W/m2
19:10 6.9 °C 3.7 °C 1035.4 hPa Calm     80% 0 mm 0.00 W/m2
19:15 6.9 °C 3.7 °C 1035.4 hPa Calm     80% 0 mm 0.00 W/m2
19:20 6.9 °C 3.5 °C 1035.4 hPa Calm     79% 0 mm 0.00 W/m2
19:25 6.9 °C 3.6 °C 1035.8 hPa Calm     79% 0 mm 0.00 W/m2
19:30 7 °C 3.8 °C 1035.8 hPa Calm     80% 0 mm 0.00 W/m2
19:35 7 °C 3.8 °C 1035.8 hPa Calm     80% 0 mm 0.00 W/m2
19:40 7 °C 3.8 °C 1035.8 hPa Calm     80% 0 mm 0.00 W/m2
19:45 6.9 °C 3.8 °C 1035.8 hPa Calm     81% 0 mm 0.00 W/m2
19:50 6.8 °C 3.6 °C 1035.8 hPa Calm     80% 0 mm 0.00 W/m2
19:55 6.6 °C 3.8 °C 1035.8 hPa Calm     82% 0 mm 0.00 W/m2
20:00 6.5 °C 3.7 °C 1035.8 hPa Calm     82% 0 mm 0.00 W/m2
20:05 6.3 °C 3.5 °C 1036.1 hPa Calm     82% 0 mm 0.00 W/m2
20:10 6.2 °C 3.4 °C 1036.1 hPa Calm     82% 0 mm 0.00 W/m2
20:15 6.1 °C 3.4 °C 1035.8 hPa Calm     83% 0 mm 0.00 W/m2
20:20 5.9 °C 3.3 °C 1035.8 hPa Calm     83% 0 mm 0.00 W/m2
20:25 5.8 °C 3.3 °C 1035.8 hPa Calm     84% 0 mm 0.00 W/m2
20:30 5.7 °C 3.2 °C 1035.8 hPa Calm     84% 0 mm 0.00 W/m2
20:35 5.6 °C 3.1 °C 1035.8 hPa Calm     84% 0 mm 0.00 W/m2
20:40 5.5 °C 3.2 °C 1035.8 hPa Calm     85% 0 mm 0.00 W/m2
20:45 5.4 °C 3.1 °C 1035.8 hPa Calm     85% 0 mm 0.00 W/m2
20:50 5.3 °C 3 °C 1035.8 hPa Calm     85% 0 mm 0.00 W/m2
20:55 5.3 °C 2.9 °C 1035.8 hPa Calm     85% 0 mm 0.00 W/m2
21:00 5.3 °C 3.1 °C 1035.8 hPa Calm     86% 0 mm 0.00 W/m2
21:05 5.3 °C 2.9 °C 1035.8 hPa Calm     85% 0 mm 0.00 W/m2
21:11 5.2 °C 2.9 °C 1035.8 hPa Calm     85% 0 mm 0.00 W/m2
21:16 5.2 °C 2.9 °C 1035.8 hPa Calm     85% 0 mm 0.00 W/m2
21:21 5.2 °C 2.7 °C 1035.8 hPa Calm     84% 0 mm 0.00 W/m2
21:26 5.2 °C 2.7 °C 1035.8 hPa Calm     84% 0 mm 0.00 W/m2
21:31 5.2 °C 2.6 °C 1035.8 hPa Calm     83% 0 mm 0.00 W/m2
21:36 5.2 °C 2.6 °C 1035.8 hPa Calm   6.4 km/h 83% 0 mm 0.00 W/m2
21:41 5.2 °C 2.4 °C 1035.8 hPa Calm   4.8 km/h 82% 0 mm 0.00 W/m2
21:46 5.3 °C 2.4 °C 1035.8 hPa Calm   4.8 km/h 82% 0 mm 0.00 W/m2
21:51 5.3 °C 2.4 °C 1035.8 hPa East 1.6 km/h 4.8 km/h 82% 0 mm 0.00 W/m2
Foresthill Weather
 WU-history PHP script courtesy of   Juneau County Weather.
powered by Cumulus v1.9.3 (1059)
Ambient Weather VWS v14.00
Top Contact Website Map Copyright © 2007 - 2018 Foresthillweather.com Never base important decisions on this or any weather information obtained from the Internet